Time,TemperatureF,DewpointF,PressureIn,WindDirection,WindDirectionDegrees,WindSpeedMPH,WindSpeedGustMPH,Humidity,HourlyPrecipIn,Conditions,Clouds,dailyrainin,SoftwareType,DateUTC
2013-07-10 00:09:00,68.0,60.2,30.27,NNW,344,5.0,12.0,76,0.00,CLR,CLR,0.00,WeatherDisplay:10.37,2013-07-09 23:09:00,
2013-07-10 00:19:00,67.5,60.0,30.27,ENE,61,3.0,11.0,77,0.00,CLR,CLR,0.00,WeatherDisplay:10.37,2013-07-09 23:19:00,
2013-07-10 00:29:00,67.0,59.9,30.27,NE,42,3.0,13.0,78,0.00,CLR,CLR,0.00,WeatherDisplay:10.37,2013-07-09 23:29:00,
2013-07-10 00:39:00,66.0,59.3,30.27,North,9,3.0,12.0,79,0.00,CLR,CLR,0.00,WeatherDisplay:10.37,2013-07-09 23:39:00,
2013-07-10 00:49:00,65.8,59.5,30.27,NNE,19,3.0,10.0,80,0.00,CLR,CLR,0.00,WeatherDisplay:10.37,2013-07-09 23:49:00,
2013-07-10 00:59:00,65.3,59.3,30.27,North,2,3.0,10.0,81,0.00,CLR,CLR,0.00,WeatherDisplay:10.37,2013-07-09 23:59:00,
2013-07-10 01:09:00,64.9,58.9,30.27,NNE,19,5.0,10.0,81,0.00,CLR,CLR,0.00,WeatherDisplay:10.37,2013-07-10 00:09:00,
2013-07-10 01:19:00,65.1,59.1,30.27,NNW,330,3.0,10.0,81,0.00,CLR,CLR,0.00,WeatherDisplay:10.37,2013-07-10 00:19:00,
2013-07-10 01:29:00,64.9,59.0,30.27,North,5,7.0,15.0,81,0.00,CLR,CLR,0.00,WeatherDisplay:10.37,2013-07-10 00:29:00,
2013-07-10 01:39:00,64.6,58.6,30.27,NE,36,5.0,14.0,81,0.00,CLR,CLR,0.00,WeatherDisplay:10.37,2013-07-10 00:39:00,
2013-07-10 01:49:00,64.4,58.8,30.27,North,6,5.0,15.0,82,0.00,CLR,CLR,0.00,WeatherDisplay:10.37,2013-07-10 00:49:00,
2013-07-10 01:59:00,64.0,58.4,30.26,NNE,12,7.0,17.0,82,0.00,CLR,CLR,0.00,WeatherDisplay:10.37,2013-07-10 00:59:00,
2013-07-10 02:09:00,64.0,58.4,30.27,NNE,30,6.0,15.0,82,0.00,CLR,CLR,0.00,WeatherDisplay:10.37,2013-07-10 01:09:00,
2013-07-10 02:19:00,63.1,57.9,30.26,NE,37,7.0,13.0,83,0.00,CLR,CLR,0.00,WeatherDisplay:10.37,2013-07-10 01:19:00,
2013-07-10 02:29:00,62.8,57.9,30.26,NNE,30,7.0,14.0,84,0.00,CLR,CLR,0.00,WeatherDisplay:10.37,2013-07-10 01:29:00,
2013-07-10 02:39:00,62.4,57.8,30.26,NNE,28,5.0,13.0,85,0.00,CLR,CLR,0.00,WeatherDisplay:10.37,2013-07-10 01:39:00,
2013-07-10 02:49:00,61.9,57.3,30.27,NE,39,2.0,8.0,85,0.00,CLR,CLR,0.00,WeatherDisplay:10.37,2013-07-10 01:49:00,
2013-07-10 02:59:00,61.7,57.5,30.27,North,9,3.0,8.0,86,0.00,CLR,CLR,0.00,WeatherDisplay:10.37,2013-07-10 01:59:00,
2013-07-10 03:09:00,61.5,57.6,30.27,North,10,1.0,7.0,87,0.00,CLR,CLR,0.00,WeatherDisplay:10.37,2013-07-10 02:09:00,
2013-07-10 03:19:00,61.5,57.6,30.27,NE,56,2.0,6.0,87,0.00,CLR,CLR,0.00,WeatherDisplay:10.37,2013-07-10 02:19:00,
2013-07-10 03:29:00,61.4,57.5,30.27,North,4,1.0,6.0,87,0.00,CLR,CLR,0.00,WeatherDisplay:10.37,2013-07-10 02:29:00,
2013-07-10 03:39:00,61.0,57.1,30.28,East,97,1.0,4.0,87,0.00,CLR,CLR,0.00,WeatherDisplay:10.37,2013-07-10 02:39:00,
2013-07-10 03:49:00,60.8,57.2,30.27,East,82,2.0,5.0,88,0.00,CLR,CLR,0.00,WeatherDisplay:10.37,2013-07-10 02:49:00,
2013-07-10 03:59:00,60.7,57.7,30.27,NNE,29,1.0,6.0,90,0.00,CLR,CLR,0.00,WeatherDisplay:10.37,2013-07-10 02:59:00,
2013-07-10 04:09:00,61.0,58.0,30.26,NNE,20,3.0,8.0,90,0.00,CLR,CLR,0.00,WeatherDisplay:10.37,2013-07-10 03:09:00,
2013-07-10 04:19:00,61.0,58.0,30.26,NNW,346,5.0,10.0,90,0.00,CLR,CLR,0.00,WeatherDisplay:10.37,2013-07-10 03:19:00,
2013-07-10 04:29:00,61.0,57.7,30.26,North,5,2.0,8.0,89,0.00,CLR,CLR,0.00,WeatherDisplay:10.37,2013-07-10 03:29:00,
2013-07-10 04:39:00,60.8,57.6,30.26,NE,52,3.0,8.0,89,0.00,CLR,CLR,0.00,WeatherDisplay:10.37,2013-07-10 03:39:00,
2013-07-10 04:49:00,60.6,57.7,30.26,NNE,22,3.0,8.0,90,0.00,CLR,CLR,0.00,WeatherDisplay:10.37,2013-07-10 03:49:00,
2013-07-10 04:59:00,60.6,58.0,30.26,North,357,3.0,9.0,91,0.00,CLR,CLR,0.00,WeatherDisplay:10.37,2013-07-10 03:59:00,
2013-07-10 05:09:00,60.5,57.9,30.25,NNE,26,3.0,9.0,91,0.00,CLR,CLR,0.00,WeatherDisplay:10.37,2013-07-10 04:09:00,
2013-07-10 05:19:00,60.6,58.0,30.25,NNE,14,5.0,8.0,91,0.00,CLR,CLR,0.00,WeatherDisplay:10.37,2013-07-10 04:19:00,
2013-07-10 05:29:00,60.6,58.0,30.25,NE,35,5.0,8.0,91,0.00,CLR,CLR,0.00,WeatherDisplay:10.37,2013-07-10 04:29:00,
2013-07-10 05:39:00,60.6,58.0,30.25,NE,36,3.0,10.0,91,0.00,CLR,CLR,0.00,WeatherDisplay:10.37,2013-07-10 04:39:00,
2013-07-10 05:49:00,60.8,57.5,30.26,NNE,23,3.0,8.0,89,0.00,CLR,CLR,0.00,WeatherDisplay:10.37,2013-07-10 04:49:00,
2013-07-10 05:59:00,61.2,57.9,30.25,North,11,6.0,10.0,89,0.00,CLR,CLR,0.00,WeatherDisplay:10.37,2013-07-10 04:59:00,
2013-07-10 06:09:00,61.7,58.1,30.25,North,358,5.0,8.0,88,0.00,CLR,CLR,0.00,WeatherDisplay:10.37,2013-07-10 05:09:00,
2013-07-10 06:19:00,61.9,58.0,30.25,NNE,16,3.0,8.0,87,0.00,CLR,CLR,0.00,WeatherDisplay:10.37,2013-07-10 05:19:00,
2013-07-10 06:29:00,61.7,57.5,30.25,NNE,17,5.0,8.0,86,0.00,CLR,CLR,0.00,WeatherDisplay:10.37,2013-07-10 05:29:00,
2013-07-10 06:39:00,62.2,58.0,30.26,North,5,3.0,7.0,86,0.00,CLR,CLR,0.00,WeatherDisplay:10.37,2013-07-10 05:39:00,
2013-07-10 06:49:00,62.7,57.8,30.26,North,10,3.0,7.0,84,0.00,CLR,CLR,0.00,WeatherDisplay:10.37,2013-07-10 05:49:00,
2013-07-10 06:59:00,63.3,58.1,30.26,North,356,1.0,6.0,83,0.00,CLR,CLR,0.00,WeatherDisplay:10.37,2013-07-10 05:59:00,
2013-07-10 07:09:00,64.8,59.1,30.26,NNE,22,2.0,6.0,82,0.00,CLR,CLR,0.00,WeatherDisplay:10.37,2013-07-10 06:09:00,
2013-07-10 07:19:00,64.6,58.6,30.25,NNE,18,2.0,6.0,81,0.00,CLR,CLR,0.00,WeatherDisplay:10.37,2013-07-10 06:19:00,
2013-07-10 07:29:00,64.9,59.0,30.26,North,7,2.0,7.0,81,0.00,CLR,CLR,0.00,WeatherDisplay:10.37,2013-07-10 06:29:00,
2013-07-10 07:39:00,66.7,59.7,30.26,NNE,18,6.0,9.0,78,0.00,CLR,CLR,0.00,WeatherDisplay:10.37,2013-07-10 06:39:00,
2013-07-10 07:49:00,66.9,59.5,30.25,NNE,26,5.0,9.0,77,0.00,CLR,CLR,0.00,WeatherDisplay:10.37,2013-07-10 06:49:00,
2013-07-10 07:59:00,67.3,59.8,30.25,ENE,62,6.0,9.0,77,0.00,CLR,CLR,0.00,WeatherDisplay:10.37,2013-07-10 06:59:00,
2013-07-10 08:09:00,67.3,59.8,30.26,NNE,27,3.0,9.0,77,0.00,CLR,CLR,0.00,WeatherDisplay:10.37,2013-07-10 07:09:00,
2013-07-10 08:19:00,68.7,60.8,30.26,NE,42,1.0,8.0,76,0.00,CLR,CLR,0.00,WeatherDisplay:10.37,2013-07-10 07:19:00,
2013-07-10 08:29:00,69.1,60.4,30.26,NNE,28,7.0,10.0,74,0.00,CLR,CLR,0.00,WeatherDisplay:10.37,2013-07-10 07:29:00,
2013-07-10 08:39:00,67.6,60.2,30.26,NNE,31,8.0,10.0,77,0.00,CLR,CLR,0.00,WeatherDisplay:10.37,2013-07-10 07:39:00,
2013-07-10 08:59:00,68.9,60.6,30.25,NNE,17,7.0,12.0,75,0.00,CLR,CLR,0.00,WeatherDisplay:10.37,2013-07-10 07:59:00,
2013-07-10 09:09:00,69.3,61.1,30.25,NNE,31,5.0,10.0,75,0.00,CLR,CLR,0.00,WeatherDisplay:10.37,2013-07-10 08:09:00,
2013-07-10 09:19:00,70.2,61.2,30.25,NE,40,6.0,10.0,73,0.00,CLR,CLR,0.00,WeatherDisplay:10.37,2013-07-10 08:19:00,
2013-07-10 09:29:00,70.5,61.4,30.25,NNE,17,5.0,10.0,73,0.00,CLR,CLR,0.00,WeatherDisplay:10.37,2013-07-10 08:29:00,
2013-07-10 09:39:00,71.9,62.0,30.25,NNE,20,5.0,8.0,71,0.00,CLR,CLR,0.00,WeatherDisplay:10.37,2013-07-10 08:39:00,
2013-07-10 09:49:00,74.1,63.2,30.25,NNE,20,1.0,8.0,69,0.00,CLR,CLR,0.00,WeatherDisplay:10.37,2013-07-10 08:49:00,
2013-07-10 09:59:00,76.8,63.7,30.25,NNW,339,1.0,6.0,64,0.00,CLR,CLR,0.00,WeatherDisplay:10.37,2013-07-10 08:59:00,
2013-07-10 10:09:00,76.5,63.8,30.25,North,6,2.0,8.0,65,0.00,CLR,CLR,0.00,WeatherDisplay:10.37,2013-07-10 09:09:00,
2013-07-10 10:19:00,76.9,64.2,30.25,NNE,24,1.0,7.0,65,0.00,CLR,CLR,0.00,WeatherDisplay:10.37,2013-07-10 09:19:00,
2013-07-10 10:29:00,78.4,64.8,30.24,ENE,62,1.0,6.0,63,0.00,CLR,CLR,0.00,WeatherDisplay:10.37,2013-07-10 09:29:00,
2013-07-10 10:39:00,78.7,63.7,30.25,NE,55,5.0,8.0,60,0.00,CLR,CLR,0.00,WeatherDisplay:10.37,2013-07-10 09:39:00,
2013-07-10 10:49:00,79.3,64.2,30.24,NE,42,5.0,7.0,60,0.00,CLR,CLR,0.00,WeatherDisplay:10.37,2013-07-10 09:49:00,
2013-07-10 10:59:00,78.4,63.4,30.25,North,7,3.0,8.0,60,0.00,CLR,CLR,0.00,WeatherDisplay:10.37,2013-07-10 09:59:00,
2013-07-10 11:09:00,78.8,63.3,30.24,NNE,16,5.0,9.0,59,0.00,CLR,CLR,0.00,WeatherDisplay:10.37,2013-07-10 10:09:00,
2013-07-10 11:19:00,79.3,63.3,30.24,NE,44,3.0,9.0,58,0.00,CLR,CLR,0.00,WeatherDisplay:10.37,2013-07-10 10:19:00,
2013-07-10 11:29:00,78.1,63.5,30.23,NNE,14,3.0,10.0,61,0.00,CLR,CLR,0.00,WeatherDisplay:10.37,2013-07-10 10:29:00,
2013-07-10 11:39:00,79.7,63.6,30.24,NE,54,1.0,8.0,58,0.00,CLR,CLR,0.00,WeatherDisplay:10.37,2013-07-10 10:39:00,
2013-07-10 11:49:00,79.5,62.9,30.24,NE,42,2.0,10.0,57,0.00,CLR,CLR,0.00,WeatherDisplay:10.37,2013-07-10 10:49:00,
2013-07-10 11:59:00,79.7,62.7,30.24,NNE,31,6.0,9.0,56,0.00,CLR,CLR,0.00,WeatherDisplay:10.37,2013-07-10 10:59:00,
2013-07-10 12:09:00,79.3,62.2,30.23,NE,35,3.0,10.0,56,0.00,CLR,CLR,0.00,WeatherDisplay:10.37,2013-07-10 11:09:00,
2013-07-10 12:19:00,79.7,62.1,30.24,NE,43,3.0,12.0,55,0.00,CLR,CLR,0.00,WeatherDisplay:10.37,2013-07-10 11:19:00,
2013-07-10 12:29:00,80.3,63.2,30.23,NNE,25,3.0,11.0,56,0.00,CLR,CLR,0.00,WeatherDisplay:10.37,2013-07-10 11:29:00,
2013-07-10 12:39:00,79.7,62.1,30.23,NE,38,8.0,12.0,55,0.00,CLR,CLR,0.00,WeatherDisplay:10.37,2013-07-10 11:39:00,
2013-07-10 12:49:00,79.0,61.9,30.23,NE,35,5.0,10.0,56,0.00,CLR,CLR,0.00,WeatherDisplay:10.37,2013-07-10 11:49:00,
2013-07-10 12:59:00,80.1,62.4,30.23,NNE,26,5.0,10.0,55,0.00,CLR,CLR,0.00,WeatherDisplay:10.37,2013-07-10 11:59:00,
2013-07-10 13:09:00,82.1,63.3,30.23,North,11,6.0,9.0,53,0.00,CLR,CLR,0.00,WeatherDisplay:10.37,2013-07-10 12:09:00,
2013-07-10 13:19:00,82.5,62.0,30.23,NE,56,5.0,11.0,50,0.00,CLR,CLR,0.00,WeatherDisplay:10.37,2013-07-10 12:19:00,
2013-07-10 13:29:00,82.4,61.9,30.23,NNE,15,1.0,6.0,50,0.00,CLR,CLR,0.00,WeatherDisplay:10.37,2013-07-10 12:29:00,
2013-07-10 13:39:00,83.3,62.7,30.23,North,2,5.0,8.0,50,0.00,CLR,CLR,0.00,WeatherDisplay:10.37,2013-07-10 12:39:00,
2013-07-10 13:49:00,83.3,62.1,30.22,NE,35,2.0,10.0,49,0.00,CLR,CLR,0.00,WeatherDisplay:10.37,2013-07-10 12:49:00,
2013-07-10 13:59:00,82.9,61.2,30.22,NNE,26,6.0,13.0,48,0.00,CLR,CLR,0.00,WeatherDisplay:10.37,2013-07-10 12:59:00,
2013-07-10 14:09:00,81.7,60.1,30.22,NNE,31,9.0,13.0,48,0.00,CLR,CLR,0.00,WeatherDisplay:10.37,2013-07-10 13:09:00,
2013-07-10 14:19:00,81.5,61.1,30.22,NNE,15,3.0,10.0,50,0.00,CLR,CLR,0.00,WeatherDisplay:10.37,2013-07-10 13:19:00,
2013-07-10 14:29:00,84.2,61.2,30.22,NNE,16,3.0,11.0,46,0.00,CLR,CLR,0.00,WeatherDisplay:10.37,2013-07-10 13:29:00,
2013-07-10 14:39:00,84.9,61.8,30.22,NNE,20,5.0,11.0,46,0.00,CLR,CLR,0.00,WeatherDisplay:10.37,2013-07-10 13:39:00,
2013-07-10 14:49:00,82.4,61.3,30.22,NE,39,5.0,10.0,49,0.00,CLR,CLR,0.00,WeatherDisplay:10.37,2013-07-10 13:49:00,
2013-07-10 14:59:00,84.9,61.8,30.21,NNE,18,6.0,8.0,46,0.00,CLR,CLR,0.00,WeatherDisplay:10.37,2013-07-10 13:59:00,
2013-07-10 15:09:00,84.6,60.9,30.21,North,353,1.0,9.0,45,0.00,CLR,CLR,0.00,WeatherDisplay:10.37,2013-07-10 14:09:00,
2013-07-10 15:19:00,84.0,62.2,30.21,NNE,33,3.0,12.0,48,0.00,CLR,CLR,0.00,WeatherDisplay:10.37,2013-07-10 14:19:00,
2013-07-10 15:29:00,86.3,61.8,30.21,North,359,2.0,8.0,44,0.00,CLR,CLR,0.00,WeatherDisplay:10.37,2013-07-10 14:29:00,
2013-07-10 15:39:00,86.6,61.4,30.20,NNE,20,3.0,8.0,43,0.00,CLR,CLR,0.00,WeatherDisplay:10.37,2013-07-10 14:39:00,
2013-07-10 15:49:00,86.7,62.2,30.21,NNE,21,3.0,8.0,44,0.00,CLR,CLR,0.00,WeatherDisplay:10.37,2013-07-10 14:49:00,
2013-07-10 15:59:00,89.1,63.7,30.20,NNE,22,1.0,9.0,43,0.00,CLR,CLR,0.00,WeatherDisplay:10.37,2013-07-10 14:59:00,
2013-07-10 16:09:00,87.6,63.6,30.20,WNW,286,5.0,11.0,45,0.00,CLR,CLR,0.00,WeatherDisplay:10.37,2013-07-10 15:09:00,
2013-07-10 16:19:00,85.5,63.6,30.20,WNW,286,3.0,13.0,48,0.00,CLR,CLR,0.00,WeatherDisplay:10.37,2013-07-10 15:19:00,
2013-07-10 16:29:00,88.0,62.7,30.20,NNE,15,2.0,6.0,43,0.00,CLR,CLR,0.00,WeatherDisplay:10.37,2013-07-10 15:29:00,
2013-07-10 16:39:00,84.2,63.0,30.20,WNW,300,2.0,8.0,49,0.00,CLR,CLR,0.00,WeatherDisplay:10.37,2013-07-10 15:39:00,
2013-07-10 16:49:00,88.1,63.4,30.19,NE,35,2.0,5.0,44,0.00,CLR,CLR,0.00,WeatherDisplay:10.37,2013-07-10 15:49:00,
2013-07-10 16:59:00,86.6,62.8,30.19,NW,306,3.0,8.0,45,0.00,CLR,CLR,0.00,WeatherDisplay:10.37,2013-07-10 15:59:00,
2013-07-10 17:09:00,86.6,62.1,30.19,West,281,2.0,6.0,44,0.00,CLR,CLR,0.00,WeatherDisplay:10.37,2013-07-10 16:09:00,
2013-07-10 17:19:00,89.5,62.7,30.19,NNW,330,2.0,6.0,41,0.00,CLR,CLR,0.00,WeatherDisplay:10.37,2013-07-10 16:19:00,
2013-07-10 17:29:00,88.5,63.1,30.19,WNW,284,3.0,7.0,43,0.00,CLR,CLR,0.00,WeatherDisplay:10.37,2013-07-10 16:29:00,
2013-07-10 17:39:00,89.1,64.3,30.18,West,281,3.0,7.0,44,0.00,CLR,CLR,0.00,WeatherDisplay:10.37,2013-07-10 16:39:00,
2013-07-10 17:49:00,89.1,63.0,30.18,WSW,242,1.0,7.0,42,0.00,CLR,CLR,0.00,WeatherDisplay:10.37,2013-07-10 16:49:00,
2013-07-10 17:59:00,88.6,63.2,30.18,WNW,283,5.0,15.0,43,0.00,CLR,CLR,0.00,WeatherDisplay:10.37,2013-07-10 16:59:00,
2013-07-10 18:09:00,83.1,65.2,30.18,West,277,8.0,10.0,55,0.00,CLR,CLR,0.00,WeatherDisplay:10.37,2013-07-10 17:09:00,
2013-07-10 18:19:00,83.1,64.2,30.17,West,276,5.0,10.0,53,0.00,CLR,CLR,0.00,WeatherDisplay:10.37,2013-07-10 17:19:00,
2013-07-10 18:29:00,81.0,61.7,30.18,West,277,7.0,10.0,52,0.00,CLR,CLR,0.00,WeatherDisplay:10.37,2013-07-10 17:29:00,
2013-07-10 18:39:00,81.0,63.3,30.18,WNW,284,6.0,9.0,55,0.00,CLR,CLR,0.00,WeatherDisplay:10.37,2013-07-10 17:39:00,
2013-07-10 18:49:00,79.9,63.8,30.18,West,273,7.0,8.0,58,0.00,CLR,CLR,0.00,WeatherDisplay:10.37,2013-07-10 17:49:00,
2013-07-10 18:59:00,80.6,64.0,30.17,West,266,5.0,9.0,57,0.00,CLR,CLR,0.00,WeatherDisplay:10.37,2013-07-10 17:59:00,
2013-07-10 19:09:00,80.4,64.3,30.18,West,264,5.0,8.0,58,0.00,CLR,CLR,0.00,WeatherDisplay:10.37,2013-07-10 18:09:00,
2013-07-10 19:19:00,82.6,64.8,30.18,West,266,3.0,7.0,55,0.00,CLR,CLR,0.00,WeatherDisplay:10.37,2013-07-10 18:19:00,
2013-07-10 19:29:00,81.7,64.5,30.17,West,262,5.0,7.0,56,0.00,CLR,CLR,0.00,WeatherDisplay:10.37,2013-07-10 18:29:00,
2013-07-10 19:39:00,82.0,63.7,30.18,West,277,1.0,6.0,54,0.00,CLR,CLR,0.00,WeatherDisplay:10.37,2013-07-10 18:39:00,
2013-07-10 19:49:00,80.6,63.4,30.18,WNW,291,3.0,7.0,56,0.00,CLR,CLR,0.00,WeatherDisplay:10.37,2013-07-10 18:49:00,
2013-07-10 19:59:00,81.5,64.3,30.18,West,270,5.0,6.0,56,0.00,CLR,CLR,0.00,WeatherDisplay:10.37,2013-07-10 18:59:00,
2013-07-10 20:09:00,80.6,64.5,30.18,West,273,3.0,6.0,58,0.00,CLR,CLR,0.00,WeatherDisplay:10.37,2013-07-10 19:09:00,
2013-07-10 20:19:00,77.7,65.0,30.18,West,281,6.0,8.0,65,0.00,CLR,CLR,0.00,WeatherDisplay:10.37,2013-07-10 19:19:00,
2013-07-10 20:40:00,84.1,65.1,30.18,North,2,0.0,2.0,53,0.00,CLR,CLR,0.00,WeatherDisplay:10.37,2013-07-10 19:40:00,
2013-07-10 20:50:00,84.8,64.1,30.18,NE,39,0.0,2.0,50,0.00,CLR,CLR,0.00,WeatherDisplay:10.37,2013-07-10 19:50:00,
2013-07-10 21:00:00,81.8,60.2,30.18,NNE,17,1.0,6.0,48,0.00,CLR,CLR,0.00,WeatherDisplay:10.37,2013-07-10 20:00:00,
2013-07-10 21:10:00,81.7,62.9,30.18,NNE,28,1.0,8.0,53,0.00,CLR,CLR,0.00,WeatherDisplay:10.37,2013-07-10 20:10:00,
2013-07-10 21:20:00,81.0,63.3,30.17,NE,40,1.0,5.0,55,0.00,CLR,CLR,0.00,WeatherDisplay:10.37,2013-07-10 20:20:00,
2013-07-10 21:30:00,80.3,62.6,30.18,NNE,28,1.0,4.0,55,0.00,CLR,CLR,0.00,WeatherDisplay:10.37,2013-07-10 20:30:00,
2013-07-10 21:40:00,79.0,58.8,30.18,ENE,58,1.0,4.0,50,0.00,CLR,CLR,0.00,WeatherDisplay:10.37,2013-07-10 20:40:00,
2013-07-10 21:50:00,78.8,57.4,30.18,NE,54,1.0,6.0,48,0.00,CLR,CLR,0.00,WeatherDisplay:10.37,2013-07-10 20:50:00,
2013-07-10 22:00:00,78.0,59.5,30.18,NE,44,1.0,3.0,53,0.00,CLR,CLR,0.00,WeatherDisplay:10.37,2013-07-10 21:00:00,
2013-07-10 22:10:00,77.0,58.6,30.18,NE,35,1.0,4.0,53,0.00,CLR,CLR,0.00,WeatherDisplay:10.37,2013-07-10 21:10:00,
2013-07-10 22:20:00,76.3,58.4,30.18,NNE,20,1.0,4.0,54,0.00,CLR,CLR,0.00,WeatherDisplay:10.37,2013-07-10 21:20:00,
2013-07-10 22:30:00,75.7,58.4,30.18,North,8,1.0,4.0,55,0.00,CLR,CLR,0.00,WeatherDisplay:10.37,2013-07-10 21:30:00,
2013-07-10 22:40:00,74.1,62.0,30.19,NNE,23,2.0,6.0,66,0.00,CLR,CLR,0.00,WeatherDisplay:10.37,2013-07-10 21:40:00,
2013-07-10 22:50:00,72.8,62.0,30.19,North,2,2.0,6.0,69,0.00,CLR,CLR,0.00,WeatherDisplay:10.37,2013-07-10 21:50:00,
2013-07-10 23:00:00,72.6,62.6,30.19,NNE,20,2.0,7.0,71,0.00,CLR,CLR,0.00,WeatherDisplay:10.37,2013-07-10 22:00:00,
2013-07-10 23:10:00,72.0,62.4,30.19,NNE,24,3.0,6.0,72,0.00,CLR,CLR,0.00,WeatherDisplay:10.37,2013-07-10 22:10:00,
2013-07-10 23:20:00,71.6,62.5,30.19,NNE,23,2.0,6.0,73,0.00,CLR,CLR,0.00,WeatherDisplay:10.37,2013-07-10 22:20:00,
2013-07-10 23:30:00,71.0,62.7,30.20,NNE,29,7.0,10.0,75,0.00,CLR,CLR,0.00,WeatherDisplay:10.37,2013-07-10 22:30:00,
2013-07-10 23:40:00,70.4,61.7,30.19,NNE,20,7.0,10.0,74,0.00,CLR,CLR,0.00,WeatherDisplay:10.37,2013-07-10 22:40:00,
2013-07-10 23:50:00,70.0,61.3,30.19,NNE,28,6.0,9.0,74,0.00,CLR,CLR,0.00,WeatherDisplay:10.37,2013-07-10 22:50:00,